Weather in Priterechny

Russia / Republic of North Ossetia — Alania     43°44′33″N   44°18′14″E
temp.,
°C
wind,
m/s
gust,
m/s
humid.,
%
clouds,
%
prec.,
mm/h
press.,
hPa
HPBL,
m
27 september, mon
mon2700:00+13ssw486825 0.0 1016128
03:00+12wsw23643 0.0 101538
06:00+13w226191 0.0 101621
09:00+18nw795988 0.0 1015838
12:00+18nnw686344 0.0 10161044
15:00+17nnw5756100 0.0 10161095
18:00+15w3560100 0.0 1017256
21:00+14wsw3571100 0.0 1018225
28 september, tue
tue2800:00+14wsw2374100 0.0 101799
03:00+14wnw1174100 0.0 101728
06:00+13ne1171100 0.0 101711
09:00+15ne336291 0.0 1018585
12:00+17ne435461 0.0 10181079
15:00+17ne4352100 0.0 10181281
18:00+14n4765100 0.0 1020293
21:00+13n247397 0.0 1022314
29 september, wed
wed2900:00+13n117491 0.0 1022127
03:00+12ne127489 0.0 102283
06:00+12ene237699 0.0 1022138
09:00+14ene4569100 0.0 1023587
12:00+14ene4567100 0.0 1023844
15:00+15e5659100 0.0 10221121
18:00+13e3664100 0.0 1022355
21:00+13e5864100 0.0 1023675
30 september, thu
thu3000:00+11ene4879100 1.0 1023848
03:00+8ne5992100 7.3 1024418
06:00+8ne4692100 5.6 1026389
09:00+8ne3490100 8.5 1028274
12:00+8ne4589100 2.4 1028555
15:00+9e3585100 2.9 1028587
18:00+9e2585100 0.3 1029420
21:00+8e2591100 0.9 1030358
1 october, fri
fri100:00+8ene3591100 0.4 1030380
03:00+8ene3788100 1.3 1030455
06:00+8e3694100 0.5 1030336
09:00+9e4988100 1.1 1031683
12:00+10e3775100 0.0 1031715
15:00+11e3668100 0.0 10301086
18:00+10se2574100 0.0 1031161
21:00+10ese4981100 0.0 1031497